EDT,Max TemperatureF,Mean TemperatureF,Min TemperatureF,Max Dew PointF,MeanDew PointF,Min DewpointF,Max Humidity, Mean Humidity, Min Humidity, Max Sea Level PressureIn, Mean Sea Level PressureIn, Min Sea Level PressureIn, Max VisibilityMiles, Mean VisibilityMiles, Min VisibilityMiles, Max Wind SpeedMPH, Mean Wind SpeedMPH, Max Gust SpeedMPH,PrecipitationIn, CloudCover, Events, WindDirDegrees
2013-7-1,76,65,54,47,42,34,72,47,21,30.19,30.15,30.06,10,10,10,14,5,20,0.00,0,,64
2013-7-2,75,64,53,50,43,39,69,49,29,30.20,30.15,30.10,10,10,10,10,4,14,0.00,0,,348
2013-7-3,79,69,58,54,49,42,77,56,35,30.13,30.09,30.04,10,10,10,14,4,19,T,2,,131
2013-7-4,76,69,62,62,60,55,87,74,60,30.06,30.03,30.01,10,9,5,16,7,21,0.00,5,,189
2013-7-5,84,72,59,64,59,54,90,64,37,30.04,30.01,29.96,10,9,6,20,6,24,0.00,1,,179
2013-7-6,86,74,61,63,60,57,90,67,43,30.00,29.98,29.94,10,9,7,20,8,27,0.00,0,,182
2013-7-7,83,72,61,68,63,58,90,71,51,29.97,29.93,29.90,10,9,5,9,4,12,T,3,,237
2013-7-8,71,67,62,65,61,56,93,86,78,30.00,29.98,29.94,10,9,4,12,6,16,0.00,8,,103
2013-7-9,79,72,64,68,65,62,97,82,67,30.01,29.91,29.73,10,6,2,14,5,18,0.17,6,Rain,138
2013-7-10,69,62,55,67,59,50,93,80,67,29.91,29.73,29.58,10,7,2,21,11,30,0.07,7,Rain,282
2013-7-11,71,62,53,54,51,49,93,70,47,30.09,30.05,29.93,10,10,9,14,6,17,0.00,0,,296
2013-7-12,81,66,51,58,53,49,89,63,36,30.17,30.13,30.09,10,10,10,13,6,18,0.00,0,,153
2013-7-13,84,70,56,61,56,52,93,64,34,30.19,30.16,30.13,10,10,10,16,7,22,0.00,0,,140
2013-7-14,86,73,60,63,59,56,90,64,37,30.25,30.23,30.20,10,10,10,16,6,22,0.00,0,,164
2013-7-15,88,76,63,67,64,60,87,67,46,30.29,30.25,30.22,10,10,9,9,3,12,0.00,2,,290
2013-7-16,92,80,67,71,66,63,87,64,41,30.27,30.21,30.15,10,10,9,18,6,23,T,1,,205
2013-7-17,91,81,71,71,69,65,90,69,47,30.17,30.13,30.07,10,9,4,16,7,23,0.00,1,,279
2013-7-18,82,76,69,72,68,65,97,82,67,30.08,29.92,29.70,10,8,1,23,7,32,0.78,5,Rain-Thunderstorm,225
2013-7-19,80,69,58,71,65,57,100,81,61,29.79,29.67,29.58,10,7,1,18,8,27,1.16,6,Rain-Thunderstorm,291
2013-7-20,66,59,52,57,50,44,93,71,48,30.00,29.86,29.71,10,10,10,18,9,25,0.00,1,,303
2013-7-21,71,60,49,52,50,46,93,69,44,30.07,30.02,29.96,10,10,10,13,5,17,0.00,2,,117
2013-7-22,80,69,58,66,61,52,84,71,58,29.96,29.79,29.59,10,10,10,16,8,22,0.14,5,Rain,145
2013-7-23,70,62,53,66,54,46,84,72,60,29.95,29.71,29.59,10,9,2,26,13,39,0.05,6,Rain-Thunderstorm,291
2013-7-24,71,59,46,50,46,43,86,63,40,30.05,30.01,29.96,10,10,10,14,5,19,0.00,0,,302
2013-7-25,75,64,52,57,53,48,93,71,49,30.06,30.03,29.99,10,10,10,16,7,23,T,5,,140
2013-7-26,66,62,58,63,60,55,93,86,78,29.98,29.89,29.82,10,7,0,17,6,22,2.38,8,Fog-Rain-Thunderstorm,124
2013-7-27,64,59,53,57,53,50,93,80,67,29.86,29.83,29.73,10,9,4,14,7,20,0.19,7,Rain,303
2013-7-28,65,59,52,53,51,48,96,78,60,29.89,29.76,29.70,10,9,2,16,8,22,0.23,7,Rain-Thunderstorm,264
2013-7-29,66,60,54,56,53,50,93,77,60,30.15,30.00,29.89,10,9,2,17,8,21,0.04,6,Rain,297
2013-7-30,76,63,50,60,53,48,93,70,47,30.20,30.14,30.10,10,10,10,17,3,23,T,3,,209
2013-7-31,75,66,57,62,58,55,93,77,60,30.09,29.96,29.85,10,9,1,18,6,27,0.53,6,Rain-Thunderstorm,221